2023/02/05 00:00:00, 2.6, 2.7
2023/02/05 00:10:00, 2.5, 3.2
2023/02/05 00:20:00, 2.6, 2.2
2023/02/05 00:30:00, 2.6, 2.4
2023/02/05 00:40:00, 2.5, 2.1
2023/02/05 00:50:00, 2.6, 1.7
2023/02/05 01:00:00, 2.7, 1.5
2023/02/05 01:10:00, 2.8, 1.2
2023/02/05 01:20:00, 2.8, 1.1
2023/02/05 01:30:00, 2.7, 1.3
2023/02/05 01:40:00, 2.7, 1.6
2023/02/05 01:50:00, 2.7, 1.7
2023/02/05 02:00:00, 2.7, 1.7
2023/02/05 02:10:00, 2.7, 1.7
2023/02/05 02:20:00, 2.7, 1.9
2023/02/05 02:30:00, 2.6, 1.5
2023/02/05 02:40:00, 2.6, 1.8
2023/02/05 02:50:00, 2.7, 2.0
2023/02/05 03:00:00, 2.7, 2.0
2023/02/05 03:10:00, 2.6, 2.1
2023/02/05 03:20:00, 2.6, 2.4
2023/02/05 03:30:00, 2.5, 3.0
2023/02/05 03:40:00, 2.5, 2.4
2023/02/05 03:50:00, 2.5, 2.4
2023/02/05 04:00:00, 2.4, 2.1
2023/02/05 04:10:00, 2.4, 2.0
2023/02/05 04:20:00, 2.4, 1.9
2023/02/05 04:30:00, 2.4, 1.8
2023/02/05 04:40:00, 2.5, 1.6
2023/02/05 04:50:00, 2.5, 1.4
2023/02/05 05:00:00, 2.5, 1.6
2023/02/05 05:10:00, 2.5, 1.0
2023/02/05 05:20:00, 2.5, 1.0
2023/02/05 05:30:00, 2.4, 0.8
2023/02/05 05:40:00, 2.4, 0.8
2023/02/05 05:50:00, 2.4, 0.6
2023/02/05 06:00:00, 2.4, 0.3
2023/02/05 06:10:00, 2.4, 0.4
2023/02/05 06:20:00, 2.4, 0.1
2023/02/05 06:30:00, 2.4, 0.3
2023/02/05 06:40:00, 2.4, 0.6
2023/02/05 06:50:00, 2.4, 0.8
2023/02/05 07:00:00, 2.4, 1.0
2023/02/05 07:10:00, 2.4, 1.0
2023/02/05 07:20:00, 2.4, 1.0
2023/02/05 07:30:00, 2.4, 1.0
2023/02/05 07:40:00, 2.4, 1.0
2023/02/05 07:50:00, 2.4, 1.5
2023/02/05 08:00:00, 2.4, 1.9
2023/02/05 08:10:00, 2.4, 2.2
2023/02/05 08:20:00, 2.5, 2.3
2023/02/05 08:30:00, 2.4, 2.8
2023/02/05 08:40:00, 2.4, 3.6
2023/02/05 08:50:00, 2.4, 5.2
2023/02/05 09:00:00, 2.2, 8.0
2023/02/05 09:10:00, 2.4, 7.2
2023/02/05 09:20:00, 2.3, 7.4
2023/02/05 09:30:00, 2.4,10.0
2023/02/05 09:40:00, 2.3,12.3
2023/02/05 09:50:00, 2.2,15.9
2023/02/05 10:00:00, 2.1,15.7
2023/02/05 10:10:00, 2.0,13.7
2023/02/05 10:20:00, 1.9,13.4
2023/02/05 10:30:00, 1.7,14.4
2023/02/05 10:40:00, 1.8,13.7
2023/02/05 10:50:00, 1.7,14.4
2023/02/05 11:00:00, 1.5,14.2
2023/02/05 11:10:00, 1.2,12.6
2023/02/05 11:20:00, 1.1,10.2
2023/02/05 11:30:00, 1.1, 9.2
2023/02/05 11:40:00, 1.1,10.8
2023/02/05 11:50:00, 1.2,13.3
2023/02/05 12:00:00, 1.0,14.4
2023/02/05 12:10:00, 1.0,14.7
2023/02/05 12:20:00, 0.9,14.7
2023/02/05 12:30:00, 0.8,16.3
2023/02/05 12:40:00, 0.5,15.9
2023/02/05 12:50:00, 0.2,17.3
2023/02/05 13:00:00, 0.4,15.6
2023/02/05 13:10:00, 0.3,16.2
2023/02/05 13:20:00, 0.0,16.0
2023/02/05 13:30:00, 0.0,17.7
2023/02/05 13:40:00, 0.0,17.6
2023/02/05 13:50:00, 0.0,17.3
2023/02/05 14:00:00, 0.0,17.8
2023/02/05 14:10:00, 0.0,17.2
2023/02/05 14:20:00, 0.0,17.6
2023/02/05 14:30:00, 0.0,18.1
2023/02/05 14:40:00, 0.0,17.8
2023/02/05 14:50:00, 0.0,19.1
2023/02/05 15:00:00, 0.0,18.2
2023/02/05 15:10:00, 0.0,19.5
2023/02/05 15:20:00, 0.0,19.0
2023/02/05 15:30:00, 0.0,19.8
2023/02/05 15:40:00, 0.0,20.1
2023/02/05 15:50:00, 0.0,19.2
2023/02/05 16:00:00, 0.0,20.3
2023/02/05 16:10:00, 0.0,19.7
2023/02/05 16:20:00, 0.0,19.5
2023/02/05 16:30:00, 0.0,18.5
2023/02/05 16:40:00, 0.0,16.8
2023/02/05 16:50:00, 0.0,13.0
2023/02/05 17:00:00, 0.0,10.9
2023/02/05 17:10:00, 0.0, 6.0
2023/02/05 17:20:00, 0.0, 4.6
2023/02/05 17:30:00, 0.0, 4.0
2023/02/05 17:40:00, 0.0, 3.4
2023/02/05 17:50:00, 0.0, 3.2
2023/02/05 18:00:00, 0.0, 2.4
2023/02/05 18:10:00, 0.0, 1.7
2023/02/05 18:20:00, 0.0, 2.1
2023/02/05 18:30:00, 0.0, 1.3
2023/02/05 18:40:00, 0.0, 1.4
2023/02/05 18:50:00, 0.0, 0.4
2023/02/05 19:00:00, 0.0, 0.7
2023/02/05 19:10:00, 0.0, 1.0
2023/02/05 19:20:00, 0.0, 0.7
2023/02/05 19:30:00, 0.0, 0.1
2023/02/05 19:40:00, 0.0, 0.0
2023/02/05 19:50:00, 0.0, 0.0
2023/02/05 20:00:00, 0.0, 0.4
2023/02/05 20:10:00, 0.0, 0.5
2023/02/05 20:20:00, 0.0, 0.1
2023/02/05 20:30:00, 0.0,-0.1
2023/02/05 20:40:00, 0.0,-0.4
2023/02/05 20:50:00, 0.0,-0.3
2023/02/05 21:00:00, 0.0,-0.4
2023/02/05 21:10:00, 0.0,-0.1
2023/02/05 21:20:00, 0.0,-0.4
2023/02/05 21:30:00, 0.0,-0.5
2023/02/05 21:40:00, 0.0,-0.9
2023/02/05 21:50:00, 0.0,-0.6
2023/02/05 22:00:00, 0.0,-1.0
2023/02/05 22:10:00, 0.0,-1.0
2023/02/05 22:20:00, 0.0,-0.6
2023/02/05 22:30:00, 0.0,-0.9
2023/02/05 22:40:00, 0.0,-1.3
2023/02/05 22:50:00, 0.0,-1.3
2023/02/05 23:00:00, 0.0,-1.3
2023/02/05 23:10:00, 0.0,-1.2
2023/02/05 23:20:00, 0.0,-1.2
2023/02/05 23:30:00, 0.0,-1.3
2023/02/05 23:40:00, 0.0,-1.7
2023/02/05 23:50:00, 0.0,-1.4
